Location: Ab? ar R?sh Ba?r?
(24.1861°N, 32.8847°E)
Time: 05:26:00
(UTC+00:00)

Cosmos 1934 Rocket - Visible Passes

Search period start: 21 May 2022 00:00
Search period end: 31 May 2022 00:00
Orbit: 938 x 999 km, 83.0° (Epoch: 20 May)

Date Brightness Start Highest point End Pass type
(mag) Time Alt. Az. Time Alt. Az. Time Alt. Az.
23 May 6.8 01:46:02 10° NE 01:49:30 15° ENE 01:52:56 10° ESE visible
23 May 7.1 16:50:17 10° WSW 16:53:31 14° WNW 16:56:46 10° NW visible
24 May 6.0 02:07:41 10° NNE 02:13:01 31° E 02:18:16 10° SE visible
25 May 4.6 02:30:20 10° N 02:36:23 61° E 02:42:20 10° SSE visible
26 May 7.1 01:13:11 10° ENE 01:14:03 10° ENE 01:14:53 10° E visible
27 May 6.4 01:33:00 10° NNE 01:37:38 22° E 01:42:12 10° SE visible
28 May 5.2 01:55:17 10° NNE 02:01:04 44° E 02:06:46 10° SSE visible
29 May 4.0 02:18:15 10° N 02:24:21 86° E 02:30:24 10° S visible
30 May 6.6 00:58:42 10° NE 01:02:12 16° ENE 01:05:41 10° ESE visible
